Location: Newark
(39.5667°N, 8.9833°E)
Time: 18:13:50
(UTC+00:00)

Transit 2A - Pass Details

Date: 28 October 2019
Orbit: 601 x 957 km, 66.7° (Epoch: 18 November)

Event Time Altitude Azimuth Distance (km) Brightness Sun altitude
Rises 01:07:01 0° 339° (NNW) 2,880 - -52.7°
Reaches altitude 10° 01:09:30 10° 350° (N) 1,956 - -52.3°
Maximum altitude 01:13:23 31° 54° (NE) 1,061 - -51.7°
Drops below altitude 10° 01:17:17 10° 117° (ESE) 1,963 - -51.0°
Sets 01:19:46 0° 128° (SE) 2,891 - -50.6°
